Location: Unspecified
(0.0000°N, 0.0000°E)
Time: 06:23:59
(UTC+02:00)

Altair - All Passes

Search period start: 02 October 2014 00:00
Search period end: 12 October 2014 00:00
Orbit: 1501 x 1682 km, 47.2° (Epoch: 29 September)

Date Brightness Start Highest point End Pass type
(mag) Time Alt. Az. Time Alt. Az. Time Alt. Az.
02 Oct - 07:54:43 10° SSW 08:04:10 54° SE 08:13:52 10° NE daylight
02 Oct - 10:00:16 10° WSW 10:08:52 34° NW 10:17:41 10° NNE daylight
02 Oct - 18:42:53 10° N 18:49:44 22° NE 18:56:24 10° E daylight
02 Oct - 20:45:02 10° NW 20:54:30 76° SW 21:03:43 10° SE visible
02 Oct - 22:55:43 10° WSW 22:59:24 13° SW 23:03:06 10° SSW visible
03 Oct - 07:29:46 10° SSW 07:39:00 48° SE 07:48:30 10° ENE daylight
03 Oct - 09:34:49 10° WSW 09:43:40 38° NW 09:52:46 10° NNE daylight
03 Oct - 18:18:14 10° N 18:24:31 19° NE 18:30:38 10° E daylight
03 Oct - 20:19:50 10° NW 20:29:23 84° SW 20:38:39 10° SE visible
03 Oct - 22:29:22 10° WSW 22:34:11 15° SW 22:38:59 10° SSW visible
04 Oct - 07:04:51 10° SSW 07:13:51 43° SE 07:23:05 10° ENE visible
04 Oct - 09:09:24 10° WSW 09:18:29 42° NW 09:27:50 10° NNE daylight
04 Oct - 17:53:42 10° N 17:59:17 17° NE 18:04:44 10° E daylight
04 Oct - 19:54:41 10° NW 20:04:16 87° NE 20:13:33 10° SE visible
04 Oct - 22:03:18 10° W 22:08:59 18° SW 22:14:37 10° S visible
05 Oct - 06:39:58 10° SSW 06:48:41 38° SE 06:57:38 10° ENE visible
05 Oct - 08:44:03 10° WSW 08:53:18 47° NW 09:02:51 10° NNE daylight
05 Oct - 17:29:19 10° NNE 17:34:02 14° NE 17:38:39 10° ENE daylight
05 Oct - 19:29:32 10° NW 19:39:09 79° NE 19:48:26 10° SE daylight
05 Oct - 21:37:24 10° W 21:43:47 20° SW 21:50:07 10° S visible
06 Oct - 06:15:07 10° SSW 06:23:31 34° SE 06:32:07 10° ENE visible
06 Oct - 08:18:44 10° SW 08:28:08 53° NW 08:37:50 10° NNE daylight
06 Oct - 17:05:13 10° NNE 17:08:45 12° NE 17:12:15 10° ENE daylight
06 Oct - 19:04:26 10° NNW 19:14:02 71° NE 19:23:16 10° SE daylight
06 Oct - 21:11:38 10° W 21:18:36 23° SW 21:25:30 10° S visible
07 Oct - 05:50:19 10° S 05:58:21 30° SE 06:06:33 10° ENE visible
07 Oct - 07:53:28 10° SW 08:02:58 59° NW 08:12:48 10° NNE daylight
07 Oct - 16:41:57 10° NNE 16:43:28 10° NE 16:44:58 10° NE daylight
07 Oct - 18:39:21 10° NNW 18:48:54 63° NE 18:58:05 10° SE daylight
07 Oct - 20:45:57 10° WNW 20:53:26 26° SW 21:00:49 10° S visible
08 Oct - 05:25:34 10° S 05:33:10 26° SE 05:40:55 10° ENE visible
08 Oct - 07:28:14 10° SW 07:37:48 66° NW 07:47:43 10° NNE daylight
08 Oct - 09:40:11 10° WNW 09:43:16 12° NW 09:46:22 10° NNW daylight
08 Oct - 18:14:18 10° NNW 18:23:46 57° NE 18:32:52 10° SE daylight
08 Oct - 20:20:21 10° WNW 20:28:17 30° SW 20:36:04 10° S visible
09 Oct - 05:00:53 10° S 05:07:59 23° SE 05:15:12 10° E visible
09 Oct - 07:03:03 10° SW 07:12:39 74° NW 07:22:37 10° NNE visible
09 Oct - 09:13:31 10° WNW 09:17:57 14° NW 09:22:27 10° NNW daylight
09 Oct - 17:49:17 10° NNW 17:58:37 50° NE 18:07:36 10° ESE daylight
09 Oct - 19:54:48 10° WNW 20:03:08 34° SW 20:11:16 10° SSE visible
10 Oct - 04:36:17 10° S 04:42:47 20° SE 04:49:23 10° E visible
10 Oct - 06:37:53 10° SW 06:47:30 82° NW 06:57:29 10° NE visible
10 Oct - 08:47:18 10° W 08:52:40 16° NW 08:58:09 10° N daylight
10 Oct - 17:24:17 10° NNW 17:33:28 45° NE 17:42:18 10° ESE daylight
10 Oct - 19:29:20 10° WNW 19:37:59 38° SW 19:46:26 10° SSE daylight
11 Oct - 04:11:46 10° S 04:17:34 18° SE 04:23:26 10° E visible
11 Oct - 06:12:46 10° SW 06:22:22 90° NW 06:32:20 10° NE visible
11 Oct - 08:21:17 10° W 08:27:25 18° NW 08:33:40 10° N daylight
11 Oct - 16:59:20 10° NNW 17:08:18 40° NE 17:16:57 10° ESE daylight
11 Oct - 19:03:54 10° WNW 19:12:51 43° SW 19:21:33 10° SSE daylight
